sat.trackr.live / text

‹ back to catalog

UNKNOWN

NORAD 81254

UNKNOWN UNKNOWN UNKNOWN

§ Identity

Operator
Country
Launch date
Launch site
Launch vehicle
Mass (kg)
RCS (m²)

External: N2YO · Heavens-Above

§ Orbital elements

Epoch: 2026-05-23T17:18:05.130144Z

Period
102.65 min
Inclination
100.3799°
Eccentricity
0.0070178
Mean motion
14.02777796 rev/d
Perigee alt
833.2 km
Apogee alt
935.2 km
Semi-major
7,262.3 km
B*
1.8003e-3
RAAN
233.1033°
Arg perigee
4.7621°
Mean anomaly
355.4193°
Rev number
63,559

§ Raw data

UNKNOWN1 81254U          26143.72089271  .00002790  00000+0  18003-2 0  99932 81254 100.3799 233.1033 0070178   4.7621 355.4193 14.02777796635597

JSON: /api/v1/satellites/81254 · /tle

For live sub-satellite position, see the globe view (requires WebGL).

§ Visibility from observer

Set your observer location to see the next 7 days of passes ≥ 10°. The values pass through the URL so the page stays shareable.

No JS? Fill the form by hand. The geolocation button needs JavaScript.